AirNav   Pilot Hours Calculator
 
 410 users online  

L83 Thibodaux Municipal Airport
Thibodaux, Louisiana, USA

GOING TO THIBODAUX?


FAA INFORMATION EFFECTIVE 09 SEPTEMBER 2021

Location

FAA Identifier: L83
Lat/Long: 29-44-52.0510N 090-49-58.4360W
29-44.867517N 090-49.973933W
29.7477919,-90.8328989
(estimated)
Elevation: 9 ft. / 2.7 m (surveyed)
Variation: 02E (1995)
From city: 3 miles S of THIBODAUX, LA
Time zone: UTC -5 (UTC -6 during Standard Time)
Zip code: 70395

Airport Operations

Airport use: Open to the public
Activation date: 09/1972
Control tower: no
ARTCC: HOUSTON CENTER
FSS: DE RIDDER FLIGHT SERVICE STATION
NOTAMs facility: DRI (NOTAM-D service available)
Attendance: 0800-1700
FOR ARPT ATND AFT HRS CALL 985-209-4697.
Wind indicator: lighted
Segmented circle: no
Lights: REIL RWY 08/26; MIRL RWY 08/26 PRESET LOW INTST; TO INCR INTST ACTVT - CTAF.
Beacon: white-green (lighted land airport)
Operates sunset to sunrise.

Airport Communications

CTAF/UNICOM: 122.8
NEW ORLEANS APPROACH: 118.9
NEW ORLEANS DEPARTURE: 118.9
WX AWOS-3PT at HUM (14 nm SE): 120.25 (985-876-4055)

Nearby radio navigation aids

VOR radial/distance  VOR name  Freq  Var
TBDr356/5.0TIBBY VOR/DME112.0002E
RQRr210/24.0RESERVE VOR/DME110.8002E

Airport Services

Fuel available: 100LL
Parking: tiedowns
Airframe service: MINOR
Powerplant service: MINOR
Bottled oxygen: NONE
Bulk oxygen: NONE

Runway Information

Runway 8/26

Dimensions: 2999 x 75 ft. / 914 x 23 m
Surface: asphalt, in good condition
Weight bearing capacity: 
Single wheel: 6.0
Runway edge lights: medium intensity
RUNWAY 8  RUNWAY 26
Latitude: 29-44.839333N29-44.895050N
Longitude: 090-50.256283W090-49.692967W
Elevation: 7.0 ft.9.0 ft.
Traffic pattern: leftleft
Runway heading: 082 magnetic, 084 true262 magnetic, 264 true
Displaced threshold: no90 ft.
Markings: nonprecision, in fair conditionnonprecision, in fair condition
Runway end identifier lights: yesyes
Touchdown point: yes, no lightsyes, no lights
Obstructions: 55 ft. trees, 725 ft. from runway, 138 ft. right of centerline, 9:1 slope to clear45 ft. trees, 799 ft. from runway, 13:1 slope to clear
APCH RATIO 14:1 TO DSPLCD THR.

Airport Ownership and Management from official FAA records

Ownership: Publicly-owned
Owner: CITY OF THIBODAUX
PO BOX 5418
THIBODAUX, LA 70302-5418
Phone 985-446-7218
Manager: ROLAND SOIGNET
PO BOX 5418
THIBODAUX, LA 70302-5418
Phone 985-446-7208

Airport Operational Statistics

Aircraft based on the field: 11
Single engine airplanes: 7
Multi engine airplanes: 2
Helicopters: 2
    
Aircraft operations: avg 125/week *
54% local general aviation
46% transient general aviation
* for 12-month period ending 10 August 2020

Additional Remarks

RWY 08/26 AGRICULTURE WASHDOWN PAD 500 FT NORTH OF RWY AT MIDFLD.
FOR CD CTC NEW ORLEANS APCH AT 504-471-4350.
TREES 60 FT TALL; 160 FT NORTH AND SOUTH OF CNTRLN PENT THE 7:1 TRSNL SLP RWY 08.
WILDLIFE ON OR NEAR THE RWY SAFETY AREA

Instrument Procedures

NOTE: All procedures below are presented as PDF files. If you need a reader for these files, you should download the free Adobe Reader.

NOT FOR NAVIGATION. Please procure official charts for flight.
FAA instrument procedures published for use from 09 September 2021 at 0901Z to 07 October 2021 at 0900Z.

 
IAPs - Instrument Approach Procedures
VOR OR GPS-A   download (163KB)
NOTE: Special Take-Off Minimums/Departure Procedures apply   download (114KB)

Other nearby airports with instrument procedures:

KHUM - Houma-Terrebonne Airport (14 nm SE)
KAPS - Port of South Louisiana Executive Regional Airport (24 nm NE)
KREG - Louisiana Regional Airport (26 nm N)
KPTN - Harry P Williams Memorial Airport (26 nm W)
KMSY - Louis Armstrong New Orleans International Airport (33 nm NE)
 
Loc | Ops | Rwys | IFR | FBO | Links
Com | Nav | Svcs | Stats | Notes
Area around L83 (Thibodaux Municipal Airport)
 
Road maps at: MapQuest Bing Google
 
Aerial photo
WARNING: Photo may not be current or correct
Aerial photo of L83 (Thibodaux Municipal Airport)
Do you have a better or more recent aerial photo of Thibodaux Municipal Airport that you would like to share? If so, please send us your photo.

 
Sectional chart

 
Airport distance calculator
Flying to Thibodaux Municipal Airport? Find the distance to fly.

From to L83

Sunrise and sunset
Times for 21-Sep-2021
 Local
(UTC-5)
 Zulu
(UTC)
Morning civil twilight06:2811:28
Sunrise06:5211:52
Sunset19:0100:01
Evening civil twilight19:2500:25

Current date and time
Zulu (UTC)  21-Sep-2021 09:12:33
Local (UTC-5)  21-Sep-2021 04:12:33
 
METAR
KHUM 
14nm SE 
202347Z 17007KT 7SM SCT035 28/25 A2993
KAPS 
24nm NE 
210855Z AUTO 29004KT 10SM CLR 25/24 A2996 RMK AO2 T02510241
KPTN 
25nm W 
210856Z AUTO 00000KT 10SM CLR 24/24 A2996 RMK AO2 SLP146 T02390239 56005 $
KREG 
26nm N 
210855Z AUTO 00000KT 10SM CLR 25/24 A2996 RMK AO2 T02470241
TAF
KHUM 
14nm SE 
210520Z 2106/2206 17007KT P6SM SCT035 FM211400 VRB03KT P6SM VCSH SCT100 FM212200 22006KT P6SM BKN100 AMD NOT SKED
NOTAMs
Click for the latest NOTAMs
NOTAMs are issued by the DoD/FAA and will open in a separate window not controlled by AirNav.

 

 
 

FBO, Fuel Providers, and Aircraft Ground Support

  
 Business Name 
 
 Contact 
 
 Services / Description 
 
Fuel Prices
 
Comments
  
Golden Ranch Aviation 985-447-6124
no information available

If you are affiliated with Golden Ranch Aviation and would like to show here your services, contact info, web link, logo, and more, click here
100LL
FS $4.05 
 Updated 14-Sep-2021
 
   write
FS=Full service
Update Fuel Prices
 

Would you like to see your business listed on this page?

 If your business provides an interesting product or service to pilots, flight crews, aircraft, or users of the Thibodaux Municipal Airport, you should consider listing it here.  To start the listing process, click on the button below
 
Add a business
 

Other Pages about Thibodaux Municipal Airport

Update a link
 
Copyright © AirNav, LLC. All rights reserved. Privacy Policy  Contact